Location: Bronschhofen
(47.4788°N, 9.0353°E)
Time: 21:22:33
(UTC+00:00)

Cosmos 1709 Rocket - Pass Details

Date: 20 May 2022
Orbit: 947 x 1002 km, 82.9° (Epoch: 01 July)

Event Time Altitude Azimuth Distance (km) Brightness Sun altitude
Rises 00:42:11 0° 352° (N) 3,664 8.1 -20.1°
Reaches altitude 10° 00:44:43 10° 355° (N) 2,706 7.3 -20.0°
Maximum altitude 00:50:54 70° 79° (E) 1,011 4.1 -19.6°
Enters shadow 00:55:02 22° 160° (SSE) 1,962 5.2 -19.3°
